#timestamp,LO_Frequency,Hit,StdDev 
1504623615.1,286047001.5,N,1.4
1504623635.9,286047003.8,N,1.4
1504623655.7,286047001.3,N,1.4
1504623675.5,286047001.8,N,1.3
1504623695.4,286047001.8,N,1.3
1504623715.2,286047001.4,N,1.3
1504623735.0,286047004.1,Y,0.0
1504623735.9,286047004.1,P,1.1
1504623755.8,286047001.6,N,1.1
1504623775.6,286047000.4,N,1.3
1504623795.5,286047000.1,N,1.4
1504623815.3,286047002.5,N,1.3
1504623835.1,286046999.7,N,1.4
1504623855.9,286047000.8,N,1.4
1504623875.7,286047000.1,N,1.3
1504623895.6,286047002.8,N,1.4
1504623915.4,286047002.7,N,1.3
1504623935.2,286046999.9,N,1.4
1504623955.1,286047000.5,N,1.3
1504623956.0,286047000.5,N,1.3
1504623975.8,286047000.3,N,1.3
1504623995.6,286047001.1,N,1.2
1504624015.5,286047002.6,N,1.2
1504624035.3,286047000.8,N,1.2
1504624055.2,286046999.8,N,1.2
1504624075.9,286047002.2,N,1.2
1504624095.7,286047001.9,N,1.2
1504624115.6,286047001.8,N,1.2
1504624135.4,286047004.0,Y,0.0
1504624155.3,286046999.7,P,0.8
1504624175.1,286047002.8,P,1.3
1504624195.8,286046999.8,N,1.3
1504624215.7,286047001.6,N,1.2
1504624235.5,286047002.3,N,1.2
1504624255.4,286046999.9,N,1.2
1504624275.2,286047002.3,N,1.2
1504624295.0,286047000.1,N,1.2
1504624295.9,286047000.1,N,1.1
1504624315.8,286046999.7,N,1.1
1504624335.6,286046999.9,N,1.1
1504624355.4,286047002.8,N,1.2
1504624375.3,286047001.1,N,1.2
1504624395.1,286047002.3,N,1.2
1504624415.9,286046999.8,N,1.2
1504624435.7,286047000.4,N,1.2
1504624455.5,286047000.1,N,1.1
1504624475.4,286047000.0,N,1.1
1504624495.2,286047001.9,N,1.1
1504624515.1,286047001.2,N,1.1
1504624516.0,286047001.2,N,1.1
1504624535.8,286046998.2,N,1.2
1504624555.6,286046998.2,N,1.3
1504624575.5,286046998.7,N,1.3
1504624595.3,286047001.1,N,1.3
1504624615.1,286046999.9,N,1.3
1504624635.9,286047000.6,N,1.2
1504624655.7,286047000.7,N,1.2
1504624675.6,286047001.1,N,1.2
1504624695.4,286046999.8,N,1.2
1504624715.2,286047002.6,N,1.2
1504624735.1,286047002.8,N,1.2
1504624736.0,286047002.8,N,1.3
1504624755.8,286047002.5,N,1.3
1504624775.7,286046999.8,N,1.3
1504624795.5,286047000.4,N,1.3
1504624815.3,286047000.0,N,1.3
1504624835.2,286046999.7,N,1.3
1504624855.0,286047002.5,N,1.3
1504624855.9,286047002.5,N,1.3
1504624875.8,286047001.6,N,1.3
1504624895.6,286047002.5,N,1.3
1504624915.4,286047002.0,N,1.3
1504624935.3,286046999.7,N,1.3
1504624955.1,286047000.7,N,1.3
1504624975.8,286046998.8,N,1.4
1504624995.7,286047000.6,N,1.4
1504625015.5,286047000.2,N,1.4
1504625035.4,286046999.9,N,1.3
1504625055.2,286046999.7,N,1.4
1504625075.0,286047002.0,N,1.4
1504625075.9,286047002.0,N,1.3
1504625095.8,286046999.7,N,1.2
1504625115.6,286047002.5,N,1.2
1504625135.5,286047000.5,N,1.2
1504625155.3,286047000.9,N,1.2
1504625175.1,286046998.5,N,1.3
1504625195.9,286047000.2,N,1.3
1504625215.7,286047001.0,N,1.3
1504625235.6,286046999.8,N,1.3
1504625255.4,286047002.5,N,1.3
1504625275.2,286047000.1,N,1.2
1504625295.1,286047000.0,N,1.2
1504625296.0,286047000.0,N,1.1
1504625315.8,286047002.3,N,1.2
1504625335.7,286047002.3,N,1.2
1504625355.5,286047002.1,N,1.2
1504625375.3,286047002.0,N,1.2
1504625395.2,286047002.2,N,1.2
1504625415.0,286047001.9,N,1.2
1504625415.9,286047001.9,N,1.2
1504625435.8,286047002.0,N,1.2
1504625455.6,286047001.9,N,1.2
1504625475.4,286047002.5,N,1.2
1504625495.3,286047002.6,N,1.2
1504625515.1,286047002.2,N,1.1
1504625535.8,286047002.4,N,1.2
1504625555.7,286047002.8,N,1.2
1504625575.5,286047002.1,N,1.1
1504625595.4,286047001.6,N,1.1
1504625615.2,286047002.0,N,1.1
1504625635.0,286047002.7,N,1.1
1504625636.0,286047002.7,N,1.1
1504625655.8,286047001.5,N,1.1
1504625675.6,286047004.4,Y,0.0
1504625695.5,286047000.9,P,0.3
1504625715.3,286047002.8,P,0.8
1504625735.1,286047000.3,N,0.9
1504625755.9,286047000.3,N,0.9
1504625775.7,286047000.5,N,0.9
1504625795.6,286046999.7,N,1.0
1504625815.4,286046999.9,N,0.9
1504625835.2,286047000.9,N,0.9
1504625855.1,286047000.0,N,0.9
1504625856.0,286047000.0,N,0.9
1504625875.8,286047000.9,N,0.8
1504625895.7,286047001.2,N,0.8
1504625915.5,286046998.2,N,1.0
1504625935.3,286047000.2,N,1.0
1504625955.2,286047000.7,N,0.9
1504625975.0,286047000.5,N,0.9
1504625975.9,286047000.5,N,0.9
1504625995.7,286047000.3,N,0.9
1504626015.6,286047000.4,N,0.9
1504626035.4,286047000.5,N,0.8
1504626055.3,286047000.7,N,0.8
1504626075.1,286046998.9,N,0.9
1504626076.0,286046998.9,N,0.9
1504626095.8,286046998.7,N,0.9
1504626115.7,286046998.1,N,1.0
1504626135.5,286046999.9,N,1.0
1504626155.4,286046998.5,N,1.0
1504626175.2,286047001.2,N,1.0
1504626195.1,286046998.4,N,1.1
1504626196.0,286046998.4,N,1.1
1504626215.8,286046999.4,N,1.1
1504626235.6,286046998.3,N,1.0
1504626255.5,286047000.9,N,1.0
1504626275.3,286046998.1,N,1.0
1504626295.2,286046998.6,N,1.0
1504626315.9,286047001.1,N,1.1
1504626335.7,286047001.0,N,1.1
1504626355.6,286047000.2,N,1.1
1504626375.4,286047000.3,N,1.1
1504626395.2,286047000.0,N,1.1
1504626415.1,286046998.1,N,1.1
1504626416.0,286046998.1,N,1.1
1504626435.8,286046998.2,N,1.1
1504626455.7,286046998.9,N,1.1
1504626475.5,286046999.6,N,1.1
1504626495.4,286046998.8,N,1.1
1504626515.2,286046999.4,N,1.0
1504626535.0,286046999.1,N,1.0
1504626535.9,286046999.1,N,1.0
1504626555.8,286046998.9,N,1.0
1504626575.6,286046998.4,N,1.0
1504626595.4,286046998.7,N,1.0
1504626615.3,286046998.2,N,1.0
1504626635.1,286046998.6,N,1.0
1504626655.9,286047000.3,N,1.0
1504626675.7,286047000.0,N,1.0
1504626695.5,286046999.9,N,1.0
1504626715.4,286047000.6,N,0.9
1504626735.2,286046998.1,N,1.0
1504626755.1,286046998.3,N,1.0
1504626756.0,286046998.3,N,1.0
1504626775.8,286046997.3,N,1.0
1504626795.6,286046997.0,N,1.0
1504626815.5,286046999.6,N,1.0
1504626835.3,286046999.5,N,1.0
1504626855.2,286046998.4,N,1.0
1504626875.9,286046998.9,N,0.9
1504626895.7,286046999.5,N,0.9
1504626915.6,286046999.6,N,0.8
1504626935.4,286046996.7,Y,0.0
1504626955.3,286046998.7,P,0.1
1504626975.1,286046996.5,P,1.1
1504626976.0,286046996.5,P,1.2
1504626995.8,286046999.6,N,1.3
1504627015.7,286046999.3,N,1.3
1504627035.5,286046999.1,N,1.2
1504627055.3,286046998.2,N,1.1
1504627075.2,286047000.5,N,1.3
1504627095.0,286047000.0,N,1.3
1504627095.9,286047000.0,N,1.3
1504627115.8,286047002.5,N,1.6
1504627135.6,286046999.9,N,1.5
1504627155.4,286047000.0,N,1.5
1504627175.3,286047000.3,N,1.5
1504627195.1,286047000.8,N,1.5
